Other Public Products
Issued by NWS Grand Forks, ND

Home | Current Version | Previous Version | Graphics & Text | Print | Product List | Glossary On
Versions: 1 2 3 4 5 6 7 8 9 10 11 12 13 14 15 16 17 18 19 20 21 22 23 24 25 26 27 28 29 30 31 32 33 34 35 36 37 38 39 40 41 42 43 44 45 46 47 48 49 50
000
FPUS83 KFGF 020810
OPUFGF
PRAIRIE TO PINES WEATHER ROUNDUP
NATIONAL WEATHER SERVICE EASTERN NORTH DAKOTA/GRAND FORKS ND
200 AM CST MON MAR 02 2015

 **SATELLITE DATA USED TO AUGMENT SKY COVER AT AUTOMATED STATIONS**
 *****  WEATHER ACROSS EASTERN NORTH DAKOTA  *****

CITY           SKY/WX    TMP DP  RH WIND       PRES   REMARKS
GRAND FORKS    PTCLDY     3  -2  79 CALM      30.36F
GRAND FORKS AF PTCLDY     6   1  78 W5        30.35F WCI  -3
GRAND CITY NWS   N/A      1 N/A N/A MISG        N/A
BUXTON         NOT AVBL
DEVILS LAKE    MOCLDY     1  -8  66 CALM      30.30F
FARGO          PTCLDY     2  -3  80 SW7       30.39F WCI -11
WAHPETON ARPT  SUNNY      5   0  78 W6        30.42S WCI  -6
$$

 *****  WEATHER ACROSS CENTRAL AND WESTERN NORTH DAKOTA  *****

CITY           SKY/WX    TMP DP  RH WIND       PRES   REMARKS
JAMESTOWN      PTCLDY     3  -2  79 W6        30.33F WCI  -8
BISMARCK       CLEAR      3   0  87 E3        30.34F
MINOT          MOCLDY     8   1  73 SW8       30.25F WCI  -4
MINOT AFB      MOCLDY     6   2  83 SW8       30.25F WCI  -7
GARRISON         N/A      2  -1  88 S3        30.27F
WILLISTON      PTCLDY     9   3  77 S6        30.19F WCI  -1
DICKINSON      PTCLDY     4  -1  80 S7        30.18F WCI  -8
HETTINGER      CLEAR      9   3  77 SE9       30.23F WCI  -4
$$

 *****  OTHER OBSERVATIONS NORTHEAST NORTH DAKOTA  *****

CITY           SKY/WX    TMP DP  RH WIND       PRES   REMARKS
WALHALLA         N/A      5   5 100 W6        30.33S WCI  -6
LANGDON        NOT AVBL
CAVALIER       FAIR       5   1  85 W8        30.33F WCI  -8
GRAFTON        NOT AVBL
CANDO          FAIR      -4  -8  84 W5        30.29F WCI -15
FORT TOTTEN      N/A      6   2  83 CALM      29.95S
ROLLA          FAIR       0  -2  92 S8        30.25F WCI -15
RUGBY          FAIR       1   0  92 S6        30.28F WCI -10
 ***** THE ABOVE OBSERVATIONS ARE NON NWS ARE NOT QUALITY
        CONTROLLED AND MAY MIS-REPORT RAIN FOR SNOW...
$$

 *****  OTHER OBSERVATIONS SOUTHEAST NORTH DAKOTA *****

CITY           SKY/WX    TMP DP  RH WIND       PRES   REMARKS
COOPERSTOWN    NOT AVBL
VALLEY CITY    FAIR       5   3  92 SW3       30.34F
OAKES            N/A      0  -2  92 S7        30.40R WCI -13
GWINNER        SUNNY      7   1  78 W9        30.40S WCI  -7
SHEYENNE NWR     N/A     -2  -7  78 SW7       29.95S WCI -15
BUFFALO        NOT AVBL
WYNDMERE         N/A      5   1  85 SW5         N/A  WCI  -4
 ***** THE ABOVE OBSERVATIONS ARE NON NWS ARE NOT QUALITY
       CONTROLLED AND MAY MIS-REPORT RAIN FOR SNOW...
$$

  *****  WEATHER ACROSS NORTHERN MINNESOTA  *****

CITY           SKY/WX    TMP DP  RH WIND       PRES   REMARKS
FLAG ISLAND    CLEAR      1  -2  85 W3        30.29R
WARROAD        CLEAR      3   0  85 W7        30.31S WCI  -9
ROSEAU         PTCLDY     7   1  78 W5        30.32S WCI  -2
HALLOCK        NOT AVBL
THF RVR FALLS  MOCLDY     3   3 100 W6        30.34S WCI  -8
HALSTAD        NOT AVBL
FOSSTON        CLEAR      0  -6  78 CALM      30.34F
BAUDETTE       CLEAR      3  -1  83 W7        30.29R WCI  -9
WASKISH        CLEAR      3   1  92 SW7       30.31R WCI  -9
CROOKSTON      PTCLDY     3   0  85 W3        30.38R
$$
  *****  WEATHER ACROSS CENTRAL AND WEST MINNESOTA  *****

CITY           SKY/WX    TMP DP  RH WIND       PRES   REMARKS
BEMIDJI        PTCLDY     3  -1  85 W5        30.32R WCI  -7
PARK RAPIDS    CLEAR      3   0  87 S3        30.33S
WADENA         PTCLDY     1   0  92 SW5       30.37S WCI  -8
DETROIT LAKES  MOCLDY     3   1  92 SW5       30.37R WCI  -6
MOORHEAD       PTCLDY     5   3  92 S6        30.40S WCI  -6
FERGUS FALLS   PTCLDY     3   0  85 S3        30.45R
ELBOW LAKE     FAIR       4   1  90 CALM      30.40F
MORRIS MN      CLEAR      5   1  85 W5        30.42R WCI  -4
STAPLES        CLEAR      1  -2  85 SW3       30.38R
WHEATON        NOT AVBL
$$
  *****  WEATHER ELSEWHERE ACROSS MINNESOTA  *****

CITY           SKY/WX    TMP DP  RH WIND       PRES   REMARKS
DULUTH         CLEAR      8   3  80 W10       30.30R WCI  -6
INTRNTL FALLS  CLEAR      5   2  87 W6        30.28R WCI  -6
ELY            NOT AVBL
CLOQUET        CLEAR      9   3  78 W6        30.32S WCI  -1
BRAINERD       CLEAR      6   4  91 W6        30.38R WCI  -4
HIBBING        CLEAR      9   3  77 W8        30.30R WCI  -3
ALEXANDRIA     PTCLDY     3   0  87 CALM      30.39S
SAINT CLOUD    CLEAR     10   5  80 W6        30.42R WCI   0
MINNEAPOLIS    CLEAR     16   7  67 NW8       30.44R WCI   5
$$

  *****  WEATHER ACROSS SOUTH DAKOTA  *****

CITY           SKY/WX    TMP DP  RH WIND       PRES   REMARKS
SIOUX FALLS    CLEAR     11   8  88 CALM      30.45R
BROOKINGS      NOT AVBL
WATERTOWN      PTCLDY     3   0  87 S3        30.40S
HURON          MOCLDY     5   1  83 CALM      30.44S
SISSETON         N/A     10   2  69 W7        30.42R WCI  -1
ABERDEEN       PTCLDY     1  -3  83 CALM      30.42F
MITCHELL       MOCLDY    11   8  88 SW6       30.46S WCI   1
PIERRE         CLEAR      9   7  92 E3        30.37F
MOBRIDGE       PTCLDY     7   3  84 SE5       30.33F WCI  -2
RAPID CITY     PTCLDY    13   7  77 S13       30.22F WCI  -2
$$

  *****  SOME WEATHER IN NEARBY STATES *****

CITY           SKY/WX    TMP DP  RH WIND       PRES   REMARKS
GLASGOW MT     CLEAR     18   8  65 SE21      30.04F WCI   1
GREAT FALLS MT CLOUDY    30  10  43 SW20G26   29.83F WCI  17
CHEYENNE WY    LGT SNOW  20  15  81 S21G26    30.08F WCI   4
SCOTTSBLUFF NE MOCLDY    26  18  71 SE9       30.19F WCI  17
OMAHA NE       CLOUDY    23  16  74 CALM      30.50R
DES MOINES IA  MOCLDY    20  13  74 W3        30.51R
DAVENPORT IA   PTCLDY     6   1  80 W9        30.47R WCI  -8
CHICAGO IL     PTCLDY    17   8  67 W9        30.39R WCI   6
EAU CLAIRE WI  CLEAR     16   6  65 NW10      30.39R WCI   4
LA CROSSE WI   CLOUDY    12   8  84 SE3       30.42R
$$

  *****  SOME NATIONAL WEATHER *****

CITY           SKY/WX    TMP DP  RH WIND       PRES   REMARKS
LA GUARDIA NY  CLOUDY    30  25  81 SW6       30.06F WCI  24
RALEIGH NC     FOG       36  34  92 SW5       30.20F VSB 1/4
ATLANTA GA     FOG       45  43  93 CALM      30.30F VSB 1/2
NEW ORLEANS LA LGT RAIN  60  58  92 CALM      30.27F FOG
OKLAHOMA CITY  CLOUDY    30  23  75 NE10      30.43F WCI  21
ALBUQUERQUE NM CLOUDY    42  34  73 N12       30.10S
SALT LAKE CITY CLOUDY    40  30  67 CALM      29.92F
LOS ANGELES CA HVY RAIN  50  47  89 N9        29.94F
BOISE ID       CLEAR     32  21  64 SE7       29.94F
SEATTLE WA     CLOUDY    44  34  67 N12       29.98S
$$

*** WEATHER ACROSS MANITOBA...SASKATCHEWAN AND ONTARIO ***
                ***ONTARIO***

CITY           SKY/WX    TMP DP  RH WIND       PRES   REMARKS
GERALDTON      CLEAR      7  -2  66 W8        30.04R WCI  -6
THUNDER BAY    CLEAR     12   1  62 W12G18    30.22R WCI  -2
SIOUX LOOKOUT  CLEAR      3  -8  60 W7        30.19R WCI  -9
TORONTO        CLOUDY    19  14  79 W10       30.12F WCI   8
BIG TROUT LK   CLEAR    -15 -20  76 W9        30.06R WCI -33
PICKLE LAKE    NOT AVBL
DRYDEN         CLEAR      3   0  85 W8        30.20S WCI -10
KENORA         CLEAR      3   1  92 W6        30.25R WCI  -8
$$
                *** MANITOBA***

CITY           SKY/WX    TMP DP  RH WIND       PRES   REMARKS
BRANDON        CLEAR     -9 -15  77 W7        30.25F WCI -24
DAUPHIN        CLEAR      7  -2  66 SW12      30.22F WCI  -9
ISLAND LAKE    CLEAR     -9 -15  77 S2        30.13R
PILOT MOUND      N/A     -4  -8  84 SW2         N/A
THE PAS        CLEAR     -2 -11  65 S8        30.06F WCI -17
THOMPSON       PTCLDY   -11 -18  70 S3        30.01F
WINNIPEG       CLEAR      5   0  78 W7        30.32S WCI  -7
LYNN LAKE      PTCLDY     3  -6  66 SW6       29.84F WCI  -8
CHURCHILL      CLEAR    -20 -27  69 W8        29.96F WCI -39
GILLAM         CLEAR    -17 -22  76 SW6       30.03S WCI -31
$$
                ***SASKATCHEWAN***

CITY           SKY/WX    TMP DP  RH WIND       PRES   REMARKS
ESTEVAN        CLEAR     -4  -8  84 SE9       30.17F WCI -20
KINDERSLEY     MOCLDY    14   9  79 S16       29.82F WCI  -2
LLOYDMINSTER   CLOUDY    10   7  85 S12       29.77F WCI  -4
PRINCE ALBERT  CLEAR     -6 -11  77 CALM      29.97F
REGINA         CLEAR      0  -6  78 SE15      30.09F WCI -20


USA.gov is the U.S. government's official web portal to all federal, state and local government web resources and services.